When you browse on this site, cookies collect data to enhance your experience and personalize the content and advertising you see.
Visit our Privacy Policy to learn more. By continuing to use the site, you agree to this use of cookies and data.
  • en Suisse
  • Liste des pays
  • À 7 jours
  • Température de l'eau
  • Carte météo
  • Widgets météo
  • user-avatar
    Se connecter

    Météo par heure à Ahtopol

    Ce jour, 26 Février, Mercredi

    Heure Température Précipitation Vent Pression Humidité
    00:00 +8°C° 0 mm 3 m/s 755 mmHg 67%
    01:00 +7°C° 0 mm 4 m/s 755 mmHg 69%
    02:00 +7°C° 0 mm 4 m/s 754 mmHg 71%
    03:00 +7°C° 0 mm 5 m/s 753 mmHg 71%
    04:00 +7°C° 0 mm 5 m/s 753 mmHg 71%
    05:00 +7°C° 0 mm 5 m/s 753 mmHg 71%
    06:00 +7°C° 0 mm 5 m/s 752 mmHg 72%
    07:00 +7°C° 0 mm 4 m/s 752 mmHg 73%
    08:00 +8°C° 0 mm 4 m/s 752 mmHg 74%
    09:00 +10°C° 0 mm 5 m/s 752 mmHg 70%
    10:00 +13°C° 0 mm 5 m/s 752 mmHg 67%
    11:00 +15°C° 0 mm 6 m/s 752 mmHg 63%
    12:00 +16°C° 0 mm 6 m/s 751 mmHg 62%
    13:00 +16°C° 0 mm 7 m/s 751 mmHg 61%
    14:00 +17°C° 0 mm 7 m/s 750 mmHg 60%
    15:00 +17°C° 0 mm 7 m/s 750 mmHg 63%
    16:00 +16°C° 0 mm 7 m/s 749 mmHg 66%
    17:00 +15°C° 0 mm 7 m/s 749 mmHg 69%
    18:00 +15°C° 0 mm 7 m/s 749 mmHg 71%
    19:00 +13°C° 0 mm 8 m/s 749 mmHg 74%
    20:00 +13°C° 0 mm 8 m/s 749 mmHg 76%
    21:00 +12°C° 0 mm 8 m/s 749 mmHg 76%
    22:00 +12°C° 0 mm 8 m/s 749 mmHg 77%
    23:00 +12°C° 0 mm 8 m/s 749 mmHg 78%

    Demain, 27 Février, Jeudi

    Heure Température Précipitation Vent Pression Humidité
    00:00 +12°C° 0 mm 8 m/s 749 mmHg 79%
    01:00 +12°C° 0 mm 8 m/s 749 mmHg 80%
    02:00 +12°C° 0 mm 8 m/s 749 mmHg 81%
    03:00 +12°C° 0 mm 8 m/s 749 mmHg 81%
    04:00 +12°C° 0 mm 8 m/s 749 mmHg 80%
    05:00 +12°C° 0 mm 7 m/s 748 mmHg 79%
    06:00 +12°C° 0 mm 7 m/s 749 mmHg 78%
    07:00 +12°C° 0 mm 7 m/s 749 mmHg 76%
    08:00 +12°C° 0 mm 7 m/s 749 mmHg 75%
    09:00 +13°C° 0 mm 8 m/s 749 mmHg 67%
    10:00 +15°C° 0 mm 9 m/s 749 mmHg 60%
    11:00 +17°C° 0 mm 10 m/s 748 mmHg 52%
    12:00 +16°C° 0.2 mm 10 m/s 748 mmHg 53%
    13:00 +16°C° 0.2 mm 10 m/s 748 mmHg 55%
    14:00 +14°C° 0.2 mm 10 m/s 749 mmHg 56%
    15:00 +13°C° 0.1 mm 8 m/s 749 mmHg 59%
    16:00 +11°C° 0.1 mm 6 m/s 749 mmHg 61%
    17:00 +11°C° 0.1 mm 3 m/s 749 mmHg 63%
    18:00 +10°C° 0 mm 4 m/s 750 mmHg 63%
    19:00 +8°C° 0 mm 5 m/s 751 mmHg 62%
    20:00 +5°C° 0 mm 6 m/s 752 mmHg 62%
    21:00 +5°C° 0 mm 6 m/s 752 mmHg 65%
    22:00 +4°C° 0 mm 6 m/s 753 mmHg 68%
    23:00 +4°C° 0 mm 7 m/s 754 mmHg 71%

    Après-demain, 28 Février, Vendredi

    Heure Température Précipitation Vent Pression Humidité
    00:00 +3°C° 0 mm 5 m/s 755 mmHg 72%
    01:00 +4°C° 0 mm 4 m/s 756 mmHg 73%
    02:00 +4°C° 0 mm 3 m/s 756 mmHg 73%
    03:00 +3°C° 0 mm 3 m/s 756 mmHg 73%
    04:00 +3°C° 0 mm 3 m/s 757 mmHg 73%
    05:00 +2°C° 0 mm 3 m/s 757 mmHg 73%
    06:00 +3°C° 0 mm 3 m/s 757 mmHg 72%
    07:00 +3°C° 0 mm 3 m/s 758 mmHg 70%
    08:00 +3°C° 0 mm 3 m/s 758 mmHg 69%
    09:00 +5°C° 0 mm 3 m/s 758 mmHg 61%
    10:00 +8°C° 0 mm 3 m/s 758 mmHg 53%
    11:00 +9°C° 0 mm 3 m/s 758 mmHg 45%
    12:00 +10°C° 0 mm 4 m/s 757 mmHg 45%
    13:00 +9°C° 0 mm 5 m/s 757 mmHg 45%
    14:00 +10°C° 0 mm 6 m/s 756 mmHg 44%
    15:00 +10°C° 0 mm 5 m/s 756 mmHg 47%
    16:00 +11°C° 0 mm 4 m/s 756 mmHg 50%
    17:00 +10°C° 0 mm 3 m/s 755 mmHg 53%
    18:00 +10°C° 0 mm 3 m/s 756 mmHg 58%
    19:00 +8°C° 0 mm 4 m/s 757 mmHg 63%
    20:00 +7°C° 0 mm 4 m/s 757 mmHg 67%
    21:00 +7°C° 0 mm 4 m/s 758 mmHg 67%
    22:00 +6°C° 0 mm 5 m/s 758 mmHg 66%
    23:00 +6°C° 0 mm 5 m/s 758 mmHg 65%

    29 Février, Samedi

    Heure Température Précipitation Vent Pression Humidité
    00:00 +4°C° 0 mm 6 m/s 758 mmHg 63%
    01:00 +4°C° 0 mm 6 m/s 759 mmHg 61%
    02:00 +3°C° 0 mm 7 m/s 759 mmHg 59%
    03:00 +3°C° 0 mm 7 m/s 759 mmHg 59%
    04:00 +2°C° 0 mm 7 m/s 759 mmHg 59%
    05:00 +2°C° 0 mm 7 m/s 760 mmHg 59%
    06:00 +2°C° 0 mm 7 m/s 760 mmHg 58%
    07:00 +2°C° 0 mm 6 m/s 761 mmHg 58%
    08:00 +2°C° 0 mm 6 m/s 761 mmHg 58%
    09:00 +4°C° 0 mm 6 m/s 761 mmHg 53%
    10:00 +5°C° 0 mm 6 m/s 762 mmHg 48%
    11:00 +8°C° 0 mm 6 m/s 762 mmHg 43%
    12:00 +8°C° 0 mm 6 m/s 762 mmHg 40%
    13:00 +9°C° 0 mm 5 m/s 762 mmHg 37%
    14:00 +10°C° 0 mm 5 m/s 761 mmHg 34%
    15:00 +11°C° 0 mm 4 m/s 761 mmHg 36%
    16:00 +10°C° 0 mm 3 m/s 762 mmHg 38%
    17:00 +10°C° 0 mm 2 m/s 762 mmHg 40%
    18:00 +10°C° 0 mm 1 m/s 762 mmHg 42%
    19:00 +9°C° 0 mm 1 m/s 762 mmHg 44%
    20:00 +6°C° 0 mm 0 m/s 763 mmHg 46%
    21:00 +7°C° 0 mm 1 m/s 763 mmHg 46%
    22:00 +7°C° 0 mm 1 m/s 763 mmHg 47%
    23:00 +6°C° 0 mm 1 m/s 763 mmHg 47%

    1 Mars, Dimanche

    Heure Température Précipitation Vent Pression Humidité
    00:00 +6°C° 0 mm 1 m/s 763 mmHg 49%
    01:00 +6°C° 0 mm 1 m/s 763 mmHg 52%
    02:00 +5°C° 0 mm 1 m/s 763 mmHg 54%
    03:00 +5°C° 0 mm 1 m/s 762 mmHg 57%
    04:00 +5°C° 0 mm 1 m/s 762 mmHg 59%
    05:00 +5°C° 0 mm 1 m/s 762 mmHg 62%
    06:00 +6°C° 0 mm 1 m/s 762 mmHg 64%
    07:00 +6°C° 0 mm 1 m/s 762 mmHg 65%
    08:00 +7°C° 0 mm 1 m/s 762 mmHg 67%
    09:00 +8°C° 0 mm 1 m/s 762 mmHg 61%
    10:00 +9°C° 0 mm 2 m/s 762 mmHg 56%
    11:00 +12°C° 0 mm 2 m/s 762 mmHg 51%
    12:00 +12°C° 0 mm 3 m/s 762 mmHg 50%
    13:00 +13°C° 0 mm 4 m/s 761 mmHg 49%
    14:00 +14°C° 0 mm 4 m/s 761 mmHg 47%
    15:00 +13°C° 0 mm 4 m/s 760 mmHg 52%
    16:00 +13°C° 0 mm 4 m/s 760 mmHg 56%
    17:00 +13°C° 0 mm 4 m/s 759 mmHg 60%
    18:00 +12°C° 0 mm 4 m/s 759 mmHg 63%
    19:00 +11°C° 0 mm 4 m/s 760 mmHg 67%
    20:00 +10°C° 0 mm 4 m/s 760 mmHg 71%
    21:00 +9°C° 0 mm 3 m/s 759 mmHg 74%
    22:00 +9°C° 0 mm 3 m/s 759 mmHg 77%
    23:00 +9°C° 0 mm 3 m/s 759 mmHg 80%

    2 Mars, Lundi

    Heure Température Précipitation Vent Pression Humidité
    00:00 +9°C° 0 mm 3 m/s 759 mmHg 82%
    01:00 +8°C° 0 mm 3 m/s 758 mmHg 85%
    02:00 +8°C° 0 mm 2 m/s 758 mmHg 87%
    03:00 +8°C° 0 mm 2 m/s 757 mmHg 88%
    04:00 +8°C° 0 mm 2 m/s 757 mmHg 90%
    05:00 +8°C° 0 mm 2 m/s 757 mmHg 91%
    06:00 +9°C° 0 mm 2 m/s 757 mmHg 90%
    07:00 +9°C° 0 mm 3 m/s 757 mmHg 90%
    08:00 +10°C° 0 mm 3 m/s 757 mmHg 89%
    09:00 +11°C° 0 mm 3 m/s 757 mmHg 84%
    10:00 +12°C° 0 mm 3 m/s 757 mmHg 79%
    11:00 +13°C° 0 mm 3 m/s 757 mmHg 74%
    12:00 +14°C° 0.1 mm 3 m/s 756 mmHg 69%
    13:00 +17°C° 0.1 mm 3 m/s 756 mmHg 64%
    14:00 +18°C° 0.1 mm 3 m/s 755 mmHg 59%
    15:00 +18°C° 0.2 mm 2 m/s 755 mmHg 62%
    16:00 +17°C° 0.2 mm 2 m/s 755 mmHg 66%
    17:00 +17°C° 0.2 mm 2 m/s 755 mmHg 69%
    18:00 +15°C° 0.3 mm 2 m/s 755 mmHg 74%
    19:00 +14°C° 0.3 mm 1 m/s 756 mmHg 79%
    20:00 +12°C° 0.3 mm 1 m/s 756 mmHg 84%
    21:00 +12°C° 0 mm 1 m/s 756 mmHg 84%
    22:00 +12°C° 0 mm 1 m/s 756 mmHg 83%
    23:00 +12°C° 0 mm 2 m/s 757 mmHg 83%
    Voir plus